User: anonymous   Login
Location: Unspecified
(0.0000°N, 0.0000°E)
Time: 19:43:21
(UTC+00:00)
Language:

Kosmos-2233 - Orbit

View from above orbital plane
View from above orbital plane
View from above satellite
View from above satellite

Ground track
Ground track

The orbit data is extracted from the following two-line orbital elements,

1 22487U 93008A   17269.50415190  .00000042  00000-0  27100-4 0  9993
2 22487  82.9478  25.2319 0038435  17.9495  30.4233 13.75764937232265
Epoch (UTC): 26 September 2017 12:05:58
Eccentricity: 0.0038435
inclination: 82.9478°
perigee height: 950 km
apogee height: 1007 km
right ascension of ascending node: 25.2319°
argument of perigee: 17.9495°
revolutions per day: 13.75764937
mean anomaly at epoch: 30.4233°
orbit number at epoch: 23226

The dashed part of the orbit path shows where the satellite is in the earth's shadow,  

DLR